This demonstration page uses our WeatherBlox Daily Observations layout. Learn more.

39.92423, -83.80882

Hourly Observations for May 5, 2015

Temp ( °F °C ) Dew Point ( °F °C ) Humidity (%) Winds ( mph kmh ) Pressure ( in mb ) Visibility ( mi km ) Precip ( " mm )
12:16 am 00:16 Mostly Cloudy with Nearby Thunderstorms 64 18 61 16 88 88 W 14 22 30.27 1025 6 9.65604 0 0
12:25 am 00:25 Mostly Cloudy with Heavy Thunderstorms 64 18 63 17 94 94 W 15 24 30.27 1025 3 4.82802 0.03 0.762
12:28 am 00:28 Mostly Cloudy with Light Thunderstorms 64 18 63 17 94 94 W 15 24 30.27 1025 2 3.21868 0.08 2.032
12:35 am 00:35 Cloudy with Heavy Thunderstorms 63 17 61 16 94 94 NW 8 13 30.27 1025 1.5 2.41401 0.15 3.81
12:47 am 00:47 Mostly Cloudy with Thunderstorms 63 17 63 17 100 100 NW 9 15 30.24 1024 2.5 4.02335 0.2 5.08
12:56 am 00:56 Cloudy with Thunderstorms 63 17.2 63 17.2 100 100 NNW 9 15 30.22 1024 2.5 4.02335 0.22 5.588
1:16 am 01:16 Cloudy with Light Rain 63 17 63 17 100 100 NW 7 11 30.24 1024 2.5 4.02335 0.05 1.27
1:23 am 01:23 Cloudy with Rain 63 17 63 17 100 100 N 8 13 30.24 1024 2.5 4.02335 0.07 1.778
1:41 am 01:41 Mostly Cloudy with Mist and Fog 63 17 63 17 100 100 NNE 6 9 30.24 1024 3 4.82802 0.09 2.286
1:56 am 01:56 Mostly Cloudy with Mist and Fog 62 16.6 62 16.6 100 100 WNW 8 13 30.23 1024 2.5 4.02335 0.09 2.286
2:04 am 02:04 Mostly Cloudy with Light Thunderstorms 63 17 63 17 100 100 W 8 13 30.24 1024 1.75 2.816345 0.05 1.27
2:07 am 02:07 Mostly Cloudy with Thunderstorms 63 17 63 17 100 100 W 9 15 30.27 1025 1.75 2.816345 0.06 1.524
2:09 am 02:09 Mostly Cloudy with Thunderstorms 63 17 63 17 100 100 W 10 17 30.27 1025 2 3.21868 0.07 1.778
2:16 am 02:16 Mostly Cloudy with Heavy Thunderstorms 63 17 63 17 100 100 WNW 13 20 30.24 1024 2 3.21868 0.13 3.302
2:21 am 02:21 Cloudy with Heavy Thunderstorms 63 17 63 17 100 100 NW 13 20 30.24 1024 1.75 2.816345 0.15 3.81
2:23 am 02:23 Mostly Cloudy with Thunderstorms 63 17 63 17 100 100 NNW 10 17 30.24 1024 2 3.21868 0.15 3.81
2:34 am 02:34 Mostly Cloudy with Heavy Thunderstorms 63 17 63 17 100 100 NNW 14 22 30.24 1024 2.5 4.02335 0.2 5.08
2:45 am 02:45 Cloudy with Light Thunderstorms 61 16 61 16 100 100 NW 8 13 30.24 1024 5 8.0467 0.2 5.08
2:56 am 02:56 Cloudy with Mist and Fog 61 16.1 61 16.1 100 100 NW 6 9 30.22 1023 6 9.65604 0.2 5.08
3:56 am 03:56 Mostly Cloudy with Mist and Fog 60 15.5 60 15.5 100 100 SE 3 6 30.21 1023 6 9.65604 0 0
4:56 am 04:56 Mostly Cloudy with Mist and Fog 60 15.5 60 15.5 100 100 NW 3 6 30.24 1024 6 9.65604 0 0
5:56 am 05:56 Mostly Cloudy with Mist and Fog 60 15.5 60 15.5 100 100 SSE 3 6 30.24 1024 5 8.0467 0 0
6:56 am 06:56 Partly Cloudy with Mist and Fog 60 15.5 60 15.5 100 100 SE 3 6 30.25 1024 5 8.0467 0 0
7:56 am 07:56 Mostly Cloudy with Mist and Fog 61 16.1 61 16.1 100 100 SE 3 6 30.27 1025 4 6.43736 0 0
8:56 am 08:56 Partly Cloudy with Mist and Fog 63 17.2 62 16.6 96 96 SE 6 9 30.28 1026 5 8.0467 0 0
9:56 am 09:56 Sunny with Mist and Fog 67 19.4 63 17.2 87 87 SE 7 11 30.29 1026 5 8.0467 0 0
10:56 am 10:56 Hazy 71 21.6 63 17.2 76 76 SSE 9 15 30.28 1025 6 9.65604 0 0
11:56 am 11:56 Hazy 76 24.4 61 16.1 60 60 SSE 8 13 30.27 1025 6 9.65604 0 0
12:56 pm 12:56 Hazy 78 25.5 59 15 52 52 WSW 9 15 30.25 1025 6 9.65604 0 0
1:56 pm 13:56 Hazy 80 26.6 58 14.4 47 47 W 8 13 30.24 1024 6 9.65604 0 0
2:56 pm 14:56 Hazy 80 26.6 57 13.8 45 45 WSW 12 19 30.23 1024 6 9.65604 0 0
3:56 pm 15:56 Hazy 82 27.7 57 13.8 42 42 VRB 7 11 30.22 1023 6 9.65604 0 0
4:56 pm 16:56 Hazy 81 27.2 56 13.3 42 42 W 8 13 30.19 1023 6 9.65604 0 0
5:56 pm 17:56 Hazy 82 27.7 54 12.2 38 38 WSW 13 20 30.18 1022 6 9.65604 0 0
6:56 pm 18:56 Hazy 81 27.2 54 12.2 39 39 WSW 8 13 30.18 1022 6 9.65604 0 0
7:56 pm 19:56 Hazy 76 24.4 56 13.3 50 50 WSW 6 9 30.18 1022 6 9.65604 0 0
8:56 pm 20:56 Clear 73 22.7 55 12.7 53 53 SW 5 7 30.19 1022 7 11.26538 0 0
9:56 pm 21:56 Clear 71 21.6 54 12.2 55 55 S 3 6 30.2 1023 7 11.26538 0 0
10:56 pm 22:56 Clear 70 21.1 54 12.2 57 57 S 3 6 30.2 1023 7 11.26538 0 0
11:56 pm 23:56 Clear 64 17.7 55 12.7 73 73 S 3 6 30.2 1023 7 11.26538 0 0

Powered by AerisWeather